Weather History for Caldwell, ID

Change the Weather History Date:

Sunday, February 10, 2013

  Actual Average (KBOI) Record (KBOI)
Temperature  
Mean Temperature 37 °F 35 °F  
Max Temperature 44 °F 43 °F 64 °F (1951)
Min Temperature 30 °F 27 °F -7 °F (1933)
Degree Days  
Heating Degree Days 28 30  
Month to date heating degree days 307  
Since 1 July heating degree days 3668  
Cooling Degree Days 0 0  
Month to date cooling degree days 0  
Year to date cooling degree days 0  
Moisture  
Dew Point 22 °F    
Average Humidity 58    
Maximum Humidity 75    
Minimum Humidity 39    
Precipitation  
Precipitation 0.00 in 0.03 in 0.34 in (1930)
Month to date precipitation 0.35  
Year to date precipitation 1.59  
Snow  
Snow 0.00 in 0.10 in 1.50 in (1903)
Month to date snowfall 1.2  
Since 1 July snowfall 16.0  
Snow Depth -    
Sea Level Pressure  
Sea Level Pressure 30.09 in    
Wind  
Wind Speed 11 mph (NW)    
Max Wind Speed 21 mph    
Max Gust Speed 26 mph    
Visibility 10 miles    
Events      
T = Trace of Precipitation, MM = Missing Value Source: NWS Daily Summary

Daily Weather History Graph

Daily Weather History Graph

Search for Another Location

Airport:

Trip Planner

Search our weather history database for the weather conditions in past years. The results will help you decide how hot, cold, wet, or windy it might be!

Date:

Astronomy

Feb. 10, 2013 Rise Set
Actual Time 7:51 AM MST 6:10 PM MST
Civil Twilight 7:21 AM MST 6:40 PM MST
Nautical Twilight 6:48 AM MST 7:14 PM MST
Astronomical Twilight 6:14 AM MST 7:47 PM MST
Moon 7:41 AM MST (2/10) 7:09 PM MST (2/10)
Length of Visible Light 11h 18m
Length of Day
10h 18m
New Moon, 0% of the Moon is Illuminated
Feb 10
New Moon
Feb 17
First Quarter
Feb 25
Full
Mar 4
Last Quarter
Mar 11
New

Hourly Weather History & Observations

Time (MST) Temp. Windchill Dew Point Humidity Pressure Visibility Wind Dir Wind Speed Gust Speed Precip Events Conditions
12:15 AM 33.8 °F 26.4 °F 24.8 °F 70% 30.01 in 10.0 mi West 9.2 mph - N/A   Clear
12:35 AM 33.8 °F 27.7 °F 23.0 °F 65% 30.02 in 10.0 mi West 6.9 mph - N/A   Clear
12:55 AM 32.0 °F 24.2 °F 23.0 °F 69% 30.02 in 10.0 mi West 9.2 mph - N/A   Clear
1:15 AM 33.8 °F 26.4 °F 23.0 °F 65% 30.02 in 10.0 mi NW 9.2 mph - N/A   Clear
1:35 AM 33.8 °F 25.3 °F 24.8 °F 70% 30.02 in 10.0 mi NW 11.5 mph - N/A   Clear
1:55 AM 33.8 °F 24.3 °F 24.8 °F 70% 30.02 in 10.0 mi NW 13.8 mph - N/A   Clear
2:15 AM 33.8 °F 24.8 °F 24.8 °F 70% 30.02 in 10.0 mi NW 12.7 mph - N/A   Clear
2:35 AM 32.0 °F 21.6 °F 24.8 °F 75% 30.02 in 10.0 mi NW 15.0 mph 19.6 mph N/A   Clear
2:55 AM 32.0 °F 22.1 °F 24.8 °F 75% 30.03 in 10.0 mi NW 13.8 mph - N/A   Clear
3:15 AM 33.8 °F 24.3 °F 24.8 °F 70% 30.03 in 10.0 mi NW 13.8 mph - N/A   Clear
3:35 AM 32.0 °F 22.1 °F 23.0 °F 69% 30.03 in 10.0 mi NW 13.8 mph - N/A   Clear
3:55 AM 33.8 °F 25.8 °F 23.0 °F 65% 30.04 in 10.0 mi NW 10.4 mph - N/A   Clear
4:15 AM 30.2 °F 25.4 °F 21.2 °F 69% 30.04 in 10.0 mi West 4.6 mph - N/A   Clear
4:35 AM 30.2 °F 23.4 °F 21.2 °F 69% 30.05 in 10.0 mi West 6.9 mph - N/A   Clear
4:55 AM 30.2 °F 23.4 °F 21.2 °F 69% 30.05 in 10.0 mi West 6.9 mph - N/A   Clear
5:15 AM 30.2 °F 23.4 °F 21.2 °F 69% 30.06 in 10.0 mi West 6.9 mph - N/A   Clear
5:35 AM 32.0 °F 24.2 °F 21.2 °F 64% 30.06 in 10.0 mi West 9.2 mph - N/A   Clear
5:55 AM 32.0 °F 24.2 °F 21.2 °F 64% 30.07 in 10.0 mi West 9.2 mph - N/A   Clear
6:15 AM 32.0 °F 22.5 °F 21.2 °F 64% 30.07 in 10.0 mi West 12.7 mph - N/A   Clear
6:35 AM 32.0 °F 24.2 °F 21.2 °F 64% 30.08 in 10.0 mi WNW 9.2 mph - N/A   Clear
6:55 AM 30.2 °F 21.3 °F 21.2 °F 69% 30.08 in 10.0 mi West 10.4 mph - N/A   Clear
7:15 AM 32.0 °F 23.6 °F 21.2 °F 64% 30.08 in 10.0 mi West 10.4 mph - N/A   Clear
7:35 AM 32.0 °F 22.5 °F 19.4 °F 60% 30.09 in 10.0 mi WNW 12.7 mph - N/A   Clear
7:55 AM 32.0 °F 22.1 °F 19.4 °F 60% 30.10 in 10.0 mi NW 13.8 mph 20.7 mph N/A   Clear
8:15 AM 33.8 °F 24.8 °F 21.2 °F 60% 30.10 in 10.0 mi NNW 12.7 mph 21.9 mph N/A   Clear
8:35 AM 33.8 °F 23.5 °F 21.2 °F 60% 30.11 in 10.0 mi NNW 16.1 mph - N/A   Clear
8:55 AM 33.8 °F 24.3 °F 21.2 °F 60% 30.12 in 10.0 mi NW 13.8 mph - N/A   Clear
9:15 AM 33.8 °F 24.3 °F 21.2 °F 60% 30.13 in 10.0 mi NW 13.8 mph - N/A   Clear
9:35 AM 35.6 °F 26.6 °F 21.2 °F 56% 30.13 in 10.0 mi NNW 13.8 mph 18.4 mph N/A   Clear
9:55 AM 35.6 °F 27.1 °F 21.2 °F 56% 30.13 in 10.0 mi NNW 12.7 mph - N/A   Clear
10:15 AM 37.4 °F 29.3 °F 21.2 °F 52% 30.13 in 10.0 mi NNW 12.7 mph - N/A   Clear
10:35 AM 37.4 °F 28.5 °F 21.2 °F 52% 30.14 in 10.0 mi NNW 15.0 mph 19.6 mph N/A   Clear
11:15 AM 39.2 °F 30.8 °F 21.2 °F 49% 30.15 in 10.0 mi NNW 15.0 mph - N/A   Clear
11:55 AM 39.2 °F 31.2 °F 24.8 °F 56% 30.15 in 10.0 mi NNW 13.8 mph - N/A   Clear
12:15 PM 41.0 °F 33.9 °F 24.8 °F 53% 30.15 in 10.0 mi NNW 12.7 mph - N/A   Clear
12:35 PM 42.8 °F 36.2 °F 24.8 °F 49% 30.14 in 10.0 mi NW 12.7 mph - N/A   Clear
12:55 PM 42.8 °F 35.1 °F 24.8 °F 49% 30.12 in 10.0 mi NNW 16.1 mph - N/A   Clear
1:15 PM 42.8 °F 35.4 °F 24.8 °F 49% 30.12 in 10.0 mi NNW 15.0 mph 24.2 mph N/A   Clear
1:35 PM 42.8 °F 36.2 °F 23.0 °F 46% 30.12 in 10.0 mi NNW 12.7 mph 17.3 mph N/A   Clear
1:55 PM 44.6 °F 37.8 °F 24.8 °F 46% 30.11 in 10.0 mi NW 15.0 mph - N/A   Clear
2:15 PM 44.6 °F 37.8 °F 24.8 °F 46% 30.11 in 10.0 mi NNW 15.0 mph - N/A   Clear
2:35 PM 44.6 °F 37.2 °F 24.8 °F 46% 30.10 in 10.0 mi NNW 17.3 mph 21.9 mph N/A   Clear
2:55 PM 44.6 °F 38.1 °F 21.2 °F 39% 30.10 in 10.0 mi NNW 13.8 mph - N/A   Clear
3:15 PM 44.6 °F 37.8 °F 23.0 °F 43% 30.10 in 10.0 mi NNW 15.0 mph 21.9 mph N/A   Clear
3:35 PM 44.6 °F 38.8 °F 21.2 °F 39% 30.10 in 10.0 mi NNW 11.5 mph 17.3 mph N/A   Clear
3:55 PM 44.6 °F 36.4 °F 21.2 °F 39% 30.10 in 10.0 mi NNW 20.7 mph - N/A   Clear
4:15 PM 44.6 °F 36.9 °F 21.2 °F 39% 30.10 in 10.0 mi NNW 18.4 mph 26.5 mph N/A   Clear
4:35 PM 44.6 °F 36.9 °F 21.2 °F 39% 30.10 in 10.0 mi NNW 18.4 mph 23.0 mph N/A   Clear
4:55 PM 44.6 °F 37.4 °F 24.8 °F 46% 30.10 in 10.0 mi NNW 16.1 mph 23.0 mph N/A   Clear
5:15 PM 42.8 °F 35.4 °F 23.0 °F 46% 30.10 in 10.0 mi NNW 15.0 mph - N/A   Clear
5:35 PM 42.8 °F 35.4 °F 24.8 °F 49% 30.10 in 10.0 mi NNW 15.0 mph 20.7 mph N/A   Clear
5:55 PM 41.0 °F 33.5 °F 24.8 °F 53% 30.10 in 10.0 mi NNW 13.8 mph - N/A   Clear
6:15 PM 39.2 °F 32.0 °F 23.0 °F 52% 30.10 in 10.0 mi NNW 11.5 mph - N/A   Clear
6:35 PM 39.2 °F 32.0 °F 23.0 °F 52% 30.11 in 10.0 mi NNW 11.5 mph - N/A   Clear
6:55 PM 37.4 °F 30.3 °F 24.8 °F 60% 30.11 in 10.0 mi NNW 10.4 mph - N/A   Clear
7:15 PM 37.4 °F 30.3 °F 23.0 °F 56% 30.11 in 10.0 mi NNW 10.4 mph - N/A   Clear
7:35 PM 35.6 °F 28.0 °F 23.0 °F 60% 30.12 in 10.0 mi NNW 10.4 mph - N/A   Clear
7:55 PM 35.6 °F 28.0 °F 23.0 °F 60% 30.12 in 10.0 mi North 10.4 mph - N/A   Clear
8:35 PM 33.8 °F 25.3 °F 23.0 °F 65% 30.12 in 10.0 mi North 11.5 mph - N/A   Clear
9:15 PM 33.8 °F 27.0 °F 21.2 °F 60% 30.13 in 10.0 mi North 8.1 mph - N/A   Clear
9:35 PM 33.8 °F 30.8 °F 21.2 °F 60% 30.14 in 10.0 mi NW 3.5 mph - N/A   Clear
9:55 PM 32.0 °F 27.5 °F 21.2 °F 64% 30.13 in 10.0 mi NNW 4.6 mph - N/A   Clear
10:15 PM 30.2 °F 24.3 °F 21.2 °F 69% 30.14 in 10.0 mi NW 5.8 mph - N/A   Clear
10:35 PM 30.2 °F 21.9 °F 19.4 °F 64% 30.15 in 10.0 mi West 9.2 mph - N/A   Clear
10:55 PM 30.2 °F 21.9 °F 21.2 °F 69% 30.15 in 10.0 mi WNW 9.2 mph - N/A   Clear
11:15 PM 30.2 °F 21.9 °F 19.4 °F 64% 30.15 in 10.0 mi NW 9.2 mph - N/A   Clear
11:35 PM 30.2 °F 21.9 °F 19.4 °F 64% 30.15 in 10.0 mi WNW 9.2 mph - N/A   Clear
11:55 PM 30.2 °F 21.3 °F 19.4 °F 64% 30.15 in 10.0 mi WNW 10.4 mph - N/A   Clear